CES9232 ZPPP-ZUCK

Flight info

Callsign CES9232
Flight time 1h 6m
Altitude 33100
Route NODIB W137 LPS J127 GBJ J129 P690 W3 UGOPO
Aircraft A320/L-SDE3FGHIRWY/L

Departure

Time 2026-04-22 00:03
Airport Kunming Changshui International Airport (ZPPP)

Arrival

Time 2026-04-22 01:09
Airport Chongqing Jiangbei International Airport (ZUCK)
Time Latitude Longitude Altitude Speed Heading
2026-04-21 23:53 25.11062 102.94097 6893 ft 4 kts 217°
2026-04-21 23:54 25.11084 102.94114 6893 ft 4 kts 210°
2026-04-21 23:54 25.11108 102.94126 6893 ft 4 kts 185°
2026-04-21 23:54 25.11126 102.94122 6893 ft 1 kts 128°
2026-04-21 23:56 25.11123 102.94126 6893 ft 4 kts 128°
2026-04-21 23:56 25.11084 102.94182 6893 ft 10 kts 127°
2026-04-21 23:57 25.11043 102.94241 6892 ft 9 kts 126°
2026-04-21 23:57 25.11010 102.94303 6892 ft 11 kts 126°
2026-04-21 23:57 25.10960 102.94371 6891 ft 11 kts 128°
2026-04-21 23:57 25.10963 102.94440 6891 ft 9 kts 42°
2026-04-21 23:58 25.11021 102.94490 6891 ft 15 kts 38°
2026-04-21 23:58 25.11131 102.94585 6891 ft 22 kts 39°
2026-04-21 23:58 25.11250 102.94689 6890 ft 22 kts 38°
2026-04-21 23:58 25.11370 102.94794 6890 ft 22 kts 38°
2026-04-21 23:59 25.11491 102.94898 6889 ft 22 kts 38°
2026-04-21 23:59 25.11612 102.95004 6889 ft 23 kts 37°
2026-04-21 23:59 25.11735 102.95110 6888 ft 21 kts 37°
2026-04-21 23:59 25.11777 102.95190 6888 ft 10 kts 115°
2026-04-22 00:00 25.11750 102.95242 6888 ft 6 kts 79°
2026-04-22 00:00 25.11783 102.95278 6888 ft 9 kts 38°
2026-04-22 00:00 25.11841 102.95327 6888 ft 10 kts 38°
2026-04-22 00:00 25.11884 102.95372 6887 ft 7 kts 65°
2026-04-22 00:01 25.11870 102.95412 6888 ft 5 kts 127°
2026-04-22 00:01 25.11842 102.95452 6888 ft 9 kts 128°
2026-04-22 00:01 25.11799 102.95501 6888 ft 11 kts 150°
2026-04-22 00:01 25.11726 102.95470 6887 ft 12 kts 218°
2026-04-22 00:02 25.11646 102.95401 6888 ft 22 kts 219°
2026-04-22 00:02 25.11338 102.95132 6890 ft 90 kts 218°
2026-04-22 00:02 25.10687 102.94564 6890 ft 146 kts 218°
2026-04-22 00:02 25.09768 102.93764 6995 ft 183 kts 218°
2026-04-22 00:03 25.08763 102.92895 7755 ft 184 kts 219°
2026-04-22 00:03 25.07741 102.92004 8394 ft 194 kts 223°
2026-04-22 00:03 25.06649 102.91039 8645 ft 210 kts 223°
2026-04-22 00:03 25.05454 102.89995 8820 ft 228 kts 221°
2026-04-22 00:04 25.04145 102.88846 9005 ft 252 kts 222°
2026-04-22 00:04 25.02753 102.87625 9676 ft 257 kts 222°
2026-04-22 00:04 25.01314 102.86405 10443 ft 258 kts 222°
2026-04-22 00:04 24.99884 102.85205 11166 ft 259 kts 223°
2026-04-22 00:05 24.98435 102.84002 11812 ft 264 kts 219°
2026-04-22 00:05 24.96638 102.83263 12125 ft 296 kts 192°
2026-04-22 00:05 24.94473 102.83404 12292 ft 331 kts 170°
2026-04-22 00:05 24.92315 102.84565 12443 ft 364 kts 144°
2026-04-22 00:06 24.90685 102.86810 12633 ft 390 kts 116°
2026-04-22 00:06 24.90040 102.89729 13082 ft 399 kts 90°
2026-04-22 00:06 24.90529 102.92719 13601 ft 398 kts 64°
2026-04-22 00:06 24.91941 102.95325 14078 ft 396 kts 47°
2026-04-22 00:07 24.93822 102.97530 14567 ft 395 kts 38°
2026-04-22 00:07 24.95173 102.98875 14895 ft 397 kts 36°
2026-04-22 00:07 24.97950 103.01580 15559 ft 401 kts 38°
2026-04-22 00:07 24.99979 103.03720 16067 ft 406 kts 40°
2026-04-22 00:08 25.01277 103.05199 16401 ft 409 kts 43°
2026-04-22 00:08 25.03187 103.07534 16898 ft 413 kts 45°
2026-04-22 00:08 25.05072 103.09966 17409 ft 417 kts 46°
2026-04-22 00:08 25.06947 103.12437 17873 ft 422 kts 46°
2026-04-22 00:09 25.08838 103.14937 18315 ft 426 kts 46°
2026-04-22 00:09 25.10750 103.17448 18691 ft 429 kts 46°
2026-04-22 00:09 25.12696 103.19968 19091 ft 432 kts 46°
2026-04-22 00:09 25.14690 103.22518 19488 ft 435 kts 45°
2026-04-22 00:10 25.16684 103.25050 19904 ft 438 kts 45°
2026-04-22 00:10 25.18688 103.27595 20309 ft 440 kts 45°
2026-04-22 00:10 25.20701 103.30158 20689 ft 444 kts 45°
2026-04-22 00:10 25.22729 103.32745 21075 ft 447 kts 45°
2026-04-22 00:11 25.24766 103.35353 21440 ft 450 kts 45°
2026-04-22 00:11 25.26817 103.37987 21813 ft 454 kts 45°
2026-04-22 00:11 25.28880 103.40636 22198 ft 457 kts 45°
2026-04-22 00:11 25.30961 103.43312 22548 ft 460 kts 45°
2026-04-22 00:12 25.33054 103.46000 22949 ft 463 kts 45°
2026-04-22 00:12 25.35163 103.48703 23286 ft 467 kts 44°
2026-04-22 00:12 25.37294 103.51431 23611 ft 470 kts 44°
2026-04-22 00:12 25.39435 103.54178 23908 ft 473 kts 44°
2026-04-22 00:13 25.41585 103.56942 24236 ft 475 kts 45°
2026-04-22 00:13 25.43739 103.59721 24544 ft 477 kts 45°
2026-04-22 00:13 25.45904 103.62518 24849 ft 480 kts 45°
2026-04-22 00:13 25.48081 103.65327 25137 ft 482 kts 45°
2026-04-22 00:14 25.50269 103.68149 25420 ft 484 kts 45°
2026-04-22 00:14 25.52467 103.70985 25714 ft 486 kts 45°
2026-04-22 00:14 25.54675 103.73835 25999 ft 489 kts 45°
2026-04-22 00:14 25.56890 103.76699 26305 ft 491 kts 45°
2026-04-22 00:15 25.59117 103.79575 26571 ft 493 kts 45°
2026-04-22 00:15 25.61358 103.82470 26867 ft 496 kts 45°
2026-04-22 00:15 25.63611 103.85383 27118 ft 499 kts 45°
2026-04-22 00:15 25.65873 103.88312 27392 ft 502 kts 45°
2026-04-22 00:16 25.68151 103.91262 27668 ft 505 kts 45°
2026-04-22 00:16 25.70437 103.94225 27928 ft 507 kts 45°
2026-04-22 00:16 25.72730 103.97204 28193 ft 509 kts 45°
2026-04-22 00:16 25.75035 104.00201 28439 ft 512 kts 45°
2026-04-22 00:17 25.77350 104.03210 28670 ft 514 kts 45°
2026-04-22 00:17 25.79672 104.06312 28904 ft 518 kts 49°
2026-04-22 00:17 25.81703 104.09638 29128 ft 523 kts 53°
2026-04-22 00:17 25.83693 104.13026 29370 ft 525 kts 53°
2026-04-22 00:18 25.85689 104.16433 29617 ft 527 kts 53°
2026-04-22 00:18 25.87689 104.19848 29852 ft 530 kts 53°
2026-04-22 00:18 25.89705 104.23288 30051 ft 532 kts 53°
2026-04-22 00:18 25.91722 104.26723 30367 ft 531 kts 53°
2026-04-22 00:19 25.93737 104.30159 30657 ft 531 kts 53°
2026-04-22 00:19 25.95747 104.33595 30903 ft 531 kts 52°
2026-04-22 00:19 25.97758 104.37037 31166 ft 531 kts 52°
2026-04-22 00:19 25.99768 104.40483 31457 ft 530 kts 52°
2026-04-22 00:20 26.01849 104.43847 31741 ft 526 kts 46°
2026-04-22 00:20 26.04269 104.46862 32020 ft 518 kts 37°
2026-04-22 00:20 26.06966 104.49475 32327 ft 513 kts 32°
2026-04-22 00:20 26.09714 104.52008 32564 ft 513 kts 32°
2026-04-22 00:21 26.12455 104.54543 32845 ft 513 kts 32°
2026-04-22 00:21 26.15203 104.57093 33045 ft 514 kts 32°
2026-04-22 00:21 26.17951 104.59648 33082 ft 513 kts 32°
2026-04-22 00:22 26.23424 104.64742 33077 ft 512 kts 32°
2026-04-22 00:22 26.28884 104.69837 33081 ft 512 kts 32°
2026-04-22 00:23 26.34346 104.74934 33099 ft 512 kts 32°
2026-04-22 00:23 26.39811 104.80028 33126 ft 512 kts 32°
2026-04-22 00:24 26.45278 104.85121 33132 ft 512 kts 32°
2026-04-22 00:24 26.50740 104.90225 33127 ft 512 kts 33°
2026-04-22 00:25 26.56221 104.95382 33113 ft 512 kts 33°
2026-04-22 00:25 26.61669 105.00503 33120 ft 512 kts 33°
2026-04-22 00:26 26.67377 105.05090 33164 ft 501 kts 24°
2026-04-22 00:26 26.73317 105.09152 33143 ft 500 kts 24°
2026-04-22 00:27 26.79252 105.13214 33141 ft 499 kts 24°
2026-04-22 00:27 26.85174 105.17274 33129 ft 499 kts 24°
2026-04-22 00:28 26.91084 105.21347 33135 ft 499 kts 24°
2026-04-22 00:28 26.96980 105.25458 33147 ft 499 kts 24°
2026-04-22 00:29 27.02865 105.29589 33145 ft 499 kts 24°
2026-04-22 00:29 27.08741 105.33705 33148 ft 498 kts 24°
2026-04-22 00:30 27.14609 105.37812 33146 ft 497 kts 24°
2026-04-22 00:30 27.20479 105.41924 33147 ft 497 kts 24°
2026-04-22 00:31 27.25835 105.46993 33157 ft 515 kts 44°
2026-04-22 00:31 27.27953 105.50266 33146 ft 522 kts 55°
2026-04-22 00:31 27.29621 105.53904 33138 ft 526 kts 62°
2026-04-22 00:32 27.32704 105.61372 33134 ft 527 kts 62°
2026-04-22 00:32 27.35821 105.68898 33132 ft 528 kts 61°
2026-04-22 00:33 27.38921 105.76388 33138 ft 528 kts 62°
2026-04-22 00:33 27.42008 105.83879 33140 ft 528 kts 62°
2026-04-22 00:34 27.45139 105.91354 33140 ft 527 kts 60°
2026-04-22 00:34 27.48932 105.98291 33140 ft 513 kts 40°
2026-04-22 00:34 27.51605 106.00859 33133 ft 499 kts 26°
2026-04-22 00:35 27.54601 106.02714 33130 ft 490 kts 19°
2026-04-22 00:35 27.60702 106.06129 33127 ft 490 kts 18°
2026-04-22 00:36 27.66806 106.09545 33124 ft 490 kts 19°
2026-04-22 00:36 27.72917 106.12990 33132 ft 491 kts 19°
2026-04-22 00:37 27.79022 106.16439 33124 ft 491 kts 19°
2026-04-22 00:37 27.85134 106.19897 33117 ft 491 kts 19°
2026-04-22 00:38 27.91241 106.23356 33112 ft 491 kts 19°
2026-04-22 00:38 27.97354 106.26814 33103 ft 491 kts 19°
2026-04-22 00:39 28.03469 106.30279 33118 ft 492 kts 19°
2026-04-22 00:39 28.09599 106.33755 33114 ft 493 kts 19°
2026-04-22 00:40 28.14735 106.36679 33069 ft 494 kts 19°
2026-04-22 00:40 28.18846 106.39021 32530 ft 495 kts 19°
2026-04-22 00:40 28.20885 106.40184 32072 ft 495 kts 19°
2026-04-22 00:40 28.25005 106.42534 31138 ft 497 kts 19°
2026-04-22 00:41 28.27056 106.43704 30675 ft 498 kts 19°
2026-04-22 00:41 28.30150 106.45471 29972 ft 497 kts 19°
2026-04-22 00:41 28.33239 106.47236 29167 ft 496 kts 20°
2026-04-22 00:41 28.36315 106.48993 28388 ft 494 kts 20°
2026-04-22 00:42 28.39375 106.50741 27629 ft 491 kts 20°
2026-04-22 00:42 28.42418 106.52483 26886 ft 488 kts 21°
2026-04-22 00:42 28.45439 106.54214 26175 ft 486 kts 21°
2026-04-22 00:42 28.48456 106.55942 25460 ft 483 kts 21°
2026-04-22 00:43 28.51448 106.57655 24788 ft 481 kts 21°
2026-04-22 00:43 28.54427 106.59365 24126 ft 477 kts 22°
2026-04-22 00:43 28.57385 106.61063 23444 ft 474 kts 22°
2026-04-22 00:43 28.60287 106.62732 22651 ft 460 kts 22°
2026-04-22 00:44 28.63087 106.64350 21891 ft 444 kts 23°
2026-04-22 00:44 28.65837 106.65773 21160 ft 425 kts 15°
2026-04-22 00:44 28.68633 106.66614 20432 ft 408 kts
2026-04-22 00:44 28.71416 106.66877 19726 ft 396 kts 355°
2026-04-22 00:45 28.74143 106.66608 19030 ft 381 kts 345°
2026-04-22 00:45 28.76651 106.65832 18403 ft 367 kts 335°
2026-04-22 00:45 28.78895 106.64586 17767 ft 352 kts 325°
2026-04-22 00:45 28.80816 106.62951 17146 ft 339 kts 314°
2026-04-22 00:46 28.82388 106.61006 16522 ft 328 kts 304°
2026-04-22 00:46 28.83590 106.58840 15912 ft 319 kts 296°
2026-04-22 00:46 28.84584 106.56603 15310 ft 313 kts 295°
2026-04-22 00:46 28.85560 106.54416 14725 ft 307 kts 295°
2026-04-22 00:47 28.86523 106.52256 14156 ft 302 kts 295°
2026-04-22 00:47 28.87470 106.50137 13545 ft 298 kts 295°
2026-04-22 00:47 28.88407 106.48049 12903 ft 293 kts 296°
2026-04-22 00:47 28.89328 106.45987 12273 ft 289 kts 296°
2026-04-22 00:48 28.90233 106.43953 11658 ft 286 kts 296°
2026-04-22 00:48 28.91282 106.42042 11059 ft 283 kts 309°
2026-04-22 00:48 28.92722 106.40534 10455 ft 282 kts 324°
2026-04-22 00:48 28.94479 106.39527 10097 ft 283 kts 340°
2026-04-22 00:49 28.96415 106.39090 10006 ft 285 kts 355°
2026-04-22 00:49 28.98401 106.39255 10019 ft 289 kts 10°
2026-04-22 00:49 29.00343 106.39877 10017 ft 290 kts 14°
2026-04-22 00:49 29.02279 106.40526 9971 ft 292 kts 14°
2026-04-22 00:50 29.04219 106.41180 9715 ft 290 kts 14°
2026-04-22 00:50 29.06144 106.41829 9454 ft 288 kts 14°
2026-04-22 00:50 29.08063 106.42476 9195 ft 287 kts 14°
2026-04-22 00:50 29.09976 106.43119 8944 ft 286 kts 14°
2026-04-22 00:51 29.11882 106.43758 8683 ft 283 kts 14°
2026-04-22 00:51 29.13751 106.44385 8426 ft 277 kts 15°
2026-04-22 00:51 29.15584 106.45002 8161 ft 273 kts 15°
2026-04-22 00:51 29.17399 106.45612 7939 ft 271 kts 14°
2026-04-22 00:52 29.19204 106.46217 7679 ft 270 kts 15°
2026-04-22 00:52 29.21026 106.46830 7427 ft 269 kts 15°
2026-04-22 00:52 29.22795 106.47425 7188 ft 267 kts 15°
2026-04-22 00:52 29.24596 106.48031 6946 ft 266 kts 15°
2026-04-22 00:53 29.26368 106.48629 6703 ft 265 kts 15°
2026-04-22 00:53 29.28131 106.49226 6451 ft 264 kts 15°
2026-04-22 00:53 29.29881 106.49815 6214 ft 260 kts 15°
2026-04-22 00:53 29.31612 106.50396 5954 ft 259 kts 15°
2026-04-22 00:54 29.33331 106.50973 5702 ft 257 kts 15°
2026-04-22 00:54 29.35038 106.51548 5449 ft 253 kts 15°
2026-04-22 00:54 29.36711 106.52112 5201 ft 248 kts 15°
2026-04-22 00:54 29.38356 106.52668 4983 ft 245 kts 15°
2026-04-22 00:55 29.39965 106.53249 4871 ft 239 kts 21°
2026-04-22 00:55 29.41497 106.53976 4782 ft 238 kts 19°
2026-04-22 00:55 29.44630 106.55125 4574 ft 236 kts 15°
2026-04-22 00:56 29.46206 106.55666 4468 ft 236 kts 16°
2026-04-22 00:56 29.47778 106.56208 4354 ft 235 kts 16°
2026-04-22 00:56 29.49312 106.56738 4251 ft 226 kts 16°
2026-04-22 00:56 29.50790 106.57249 4150 ft 217 kts 15°
2026-04-22 00:57 29.52216 106.57742 4053 ft 212 kts 15°
2026-04-22 00:57 29.53602 106.58221 3959 ft 204 kts 15°
2026-04-22 00:57 29.54935 106.58682 3903 ft 195 kts 15°
2026-04-22 00:57 29.56208 106.59122 3927 ft 189 kts 15°
2026-04-22 00:58 29.57458 106.59555 3896 ft 185 kts 15°
2026-04-22 00:58 29.58672 106.59975 3748 ft 180 kts 15°
2026-04-22 00:58 29.59849 106.60383 3538 ft 173 kts 15°
2026-04-22 00:58 29.60969 106.60771 3329 ft 164 kts 15°
2026-04-22 00:59 29.62034 106.61140 3129 ft 156 kts 15°
2026-04-22 00:59 29.63025 106.61483 2926 ft 144 kts 16°
2026-04-22 00:59 29.63978 106.61813 2737 ft 142 kts 16°
2026-04-22 00:59 29.64936 106.62145 2546 ft 141 kts 15°
2026-04-22 01:00 29.65873 106.62470 2362 ft 140 kts 14°
2026-04-22 01:00 29.66799 106.62789 2185 ft 142 kts 14°
2026-04-22 01:00 29.67763 106.63110 1997 ft 142 kts 15°
2026-04-22 01:00 29.68708 106.63456 1813 ft 143 kts 15°
2026-04-22 01:01 29.69660 106.63779 1614 ft 143 kts 15°
2026-04-22 01:01 29.70606 106.64113 1418 ft 142 kts 15°
2026-04-22 01:01 29.71519 106.64430 1370 ft 138 kts 17°
2026-04-22 01:01 29.72531 106.64767 1843 ft 162 kts 14°
2026-04-22 01:02 29.73694 106.65158 2595 ft 184 kts 15°
2026-04-22 01:02 29.74959 106.65223 3465 ft 186 kts 341°
2026-04-22 01:02 29.75985 106.64286 3982 ft 204 kts 307°
2026-04-22 01:02 29.76432 106.62662 3923 ft 224 kts 272°
2026-04-22 01:03 29.75994 106.60950 3894 ft 227 kts 237°
2026-04-22 01:03 29.74816 106.59755 3908 ft 228 kts 211°
2026-04-22 01:03 29.73413 106.58902 3909 ft 228 kts 207°
2026-04-22 01:03 29.71987 106.58095 3910 ft 229 kts 207°
2026-04-22 01:04 29.70553 106.57294 3909 ft 229 kts 207°
2026-04-22 01:04 29.69107 106.56507 3909 ft 229 kts 205°
2026-04-22 01:04 29.67651 106.55760 3909 ft 229 kts 205°
2026-04-22 01:04 29.66197 106.55022 3908 ft 229 kts 205°
2026-04-22 01:05 29.64719 106.54497 3864 ft 220 kts 181°
2026-04-22 01:05 29.63285 106.54902 3660 ft 212 kts 144°
2026-04-22 01:05 29.62344 106.56120 3471 ft 199 kts 118°
2026-04-22 01:05 29.61886 106.57559 3205 ft 187 kts 96°
2026-04-22 01:06 29.61924 106.58966 3106 ft 167 kts 75°
2026-04-22 01:06 29.62335 106.60168 3003 ft 159 kts 56°
2026-04-22 01:06 29.62998 106.61093 2891 ft 146 kts 39°
2026-04-22 01:06 29.63830 106.61723 2738 ft 142 kts 23°
2026-04-22 01:07 29.64761 106.62084 2564 ft 141 kts 15°
2026-04-22 01:07 29.65699 106.62409 2389 ft 141 kts 15°
2026-04-22 01:07 29.66641 106.62736 2202 ft 142 kts 15°
2026-04-22 01:07 29.67586 106.63063 2008 ft 142 kts 14°
2026-04-22 01:08 29.68531 106.63395 1817 ft 142 kts 15°
2026-04-22 01:08 29.69492 106.63725 1631 ft 142 kts 13°
2026-04-22 01:08 29.70436 106.64055 1441 ft 141 kts 13°
2026-04-22 01:08 29.71353 106.64370 1358 ft 125 kts 17°
2026-04-22 01:09 29.71916 106.64563 1355 ft 32 kts 17°
2026-04-22 01:09 29.72099 106.64641 1354 ft 22 kts 35°
2026-04-22 01:09 29.72149 106.64736 1354 ft 13 kts 100°
2026-04-22 01:09 29.72127 106.64821 1356 ft 10 kts 105°
2026-04-22 01:10 29.72110 106.64892 1355 ft 8 kts 105°
2026-04-22 01:10 29.72095 106.64954 1355 ft 8 kts 106°
2026-04-22 01:10 29.72080 106.65010 1355 ft 7 kts 108°
2026-04-22 01:10 29.72064 106.65062 1357 ft 7 kts 109°
2026-04-22 01:11 29.72050 106.65112 1353 ft 7 kts 107°
2026-04-22 01:11 29.72037 106.65163 1352 ft 7 kts 105°
2026-04-22 01:11 29.72017 106.65245 1353 ft 15 kts 106°
2026-04-22 01:11 29.71986 106.65372 1348 ft 16 kts 107°
2026-04-22 01:12 29.71955 106.65487 1346 ft 15 kts 106°
2026-04-22 01:12 29.71927 106.65596 1343 ft 12 kts 108°
2026-04-22 01:12 29.71903 106.65679 1343 ft 10 kts 108°
2026-04-22 01:12 29.71875 106.65722 1342 ft 6 kts 174°
2026-04-22 01:13 29.71839 106.65712 1343 ft 5 kts 197°
2026-04-22 01:13 29.71814 106.65703 1347 ft 3 kts 198°
2026-04-22 01:13 29.71800 106.65697 1344 ft 1 kts 198°
2026-04-22 01:13 29.71798 106.65696 1344 ft 0 kts 198°